Powrót do katalogu

STARLINK-30602

AktywnyŁącznośćVLEO
NORAD 58081·PAYLOAD·🇺🇸 United States

Wystrzelony Oct 18, 2023 z Cape Canaveral Space Force Station

Loading…

Następne Przeloty (najbliższe 24 godziny)

TLE

ŚwieżeSource: CelesTrak SupGP

Epoka: Sep 14, 2026, 22:23 UTC

1 58081C 23160G   26257.93312500  .00047157  00000+0  17075-2 0  2571
2 58081  42.9996  92.5950 0001308 271.9896 230.6017 15.27565001    19

Śledź STARLINK-30602 w czasie rzeczywistym z AllMySat

Download on the App Store